Home   Weather   Bolzano   Past weeks

Flag for Italy Past Weather in Bolzano, Italy — Yesterday and Last 2 Weeks

Now
50 °F

Clear.


Feels Like: 50 °F
Forecast: 46 / 71 °F
Wind: No wind

Location: Bolzano

Current Time: Sep 26, 2016 at 7:28:21 AM

Latest Report: Sep 26, 2016 at 6:50 AM


Visibility: 10 mi

Pressure: 30.15 "Hg

Humidity: 94%

Dew Point: 48 °F

Location of BolzanoLocation

Past Weather in Bolzano — Graph

°F

Bolzano Temperature Yesterday

Maximum temperature yesterday: 79 °F (at 3:50 PM)
Minimum temperature yesterday: 52 °F (at 8:50 AM)
Average temperature yesterday: 67 °F

High & Low Weather Summary for the Past Weeks

 TemperatureHumidityPressure
High88 °F (Sep 12, 4:50 PM)100% (Sep 16, 6:50 AM)30.33 "Hg (Sep 16, 6:50 AM)
Low52 °F (Sep 25, 8:50 AM)24% (Sep 19, 2:50 PM)29.80 "Hg (Sep 18, 3:50 PM)
Average69 °F64%30.02 "Hg
* Reported Sep 10 10:50 PM — Sep 25 10:50 PM, Bolzano, Weather by CustomWeather, © 2016

Note: Actual official high and low records may vary slightly from our data, if they occured in-between our weather recording intervals... More about our weather records

Advertising

Bolzano Weather History for the Previous 24 Hours

Scroll right to see more
 ConditionsComfort  
Time TempWeatherWind HumidityBarometerVisibility
10:50 PM
Sun, Sep 25
59 °FClear.No wind77%30.09 "Hg10 mi
9:50 PM61 °FClear.No wind77%30.09 "Hg10 mi
8:50 PM68 °FClear.3 mph56%30.07 "Hg10 mi
7:50 PM70 °FClear.6 mph53%30.04 "Hg10 mi
6:50 PM72 °FSunny.9 mph50%30.01 "Hg10 mi
5:50 PM77 °FSunny.6 mph39%29.98 "Hg10 mi
4:50 PM77 °FPassing clouds.5 mph42%30.01 "HgN/A
3:50 PM79 °FSunny.6 mph34%30.01 "Hg10 mi
2:50 PM77 °FPassing clouds.5 mph42%30.04 "HgN/A
1:50 PM77 °FPassing clouds.5 mph39%30.09 "HgN/A
12:50 PM73 °FSunny.3 mph47%30.09 "Hg10 mi
11:50 AM70 °FPassing clouds.No wind50%30.15 "HgN/A
10:50 AM64 °FPassing clouds.No wind64%30.18 "HgN/A
9:50 AM61 °FSunny.No wind72%30.21 "Hg10 mi
8:50 AM52 °FSunny.No wind94%30.21 "Hg10 mi
7:50 AM54 °FSunny.1 mph88%30.21 "Hg10 mi
Weather by CustomWeather, © 2016

See weather overviewHow to use our weather pages